Temp
10 10 10 10 10 10 10 10 10 10 9 9 9 9 9 9 9 8 8 8 8 8 8 8 8 8 7 7 7 7 7 7 6
10 10 10 10 9 9 9 9 9 9 9 9 9 8 8 8 8 8 8 8 8 7 8 7 7 7 7 7 7 7 6 6 6
9 9 9 9 9 9 9 8 8 8 8 8 8 8 8 8 7 7 7 7 7 7 7 7 7 7 7 6 6 6 6 6 6
9 9 8 8 8 8 8 7 7 7 7 7 7 7 7 7 6 6 6 6 6 6 6 6 6 6 6 6 6 6 6 6 5
8 8 8 7 7 7 7 7 6 6 6 6 6 6 6 6 6 5 5 5 5 5 5 5 5 5 5 5 5 5 5 5 5
8 8 8 7 7 7 7 6 6 6 6 6 6 6 6 6 6 5 5 5 5 5 5 4 5 5 5 5 4 5 5 5 5
8 7 8 7 7 7 7 6 6 6 6 6 6 6 6 6 6 6 5 5 5 5 5 5 5 5 5 4 4 4 4 4 4
7 7 7 7 7 7 6 6 6 6 6 6 6 6 6 6 6 6 6 6 6 6 6 5 5 5 4 4 4 4 4 4 4
7 7 7 7 6 6 6 6 6 6 6 6 6 6 6 6 6 6 6 6 5 6 5 5 5 4 4 4 4 4 3 4 4
7 7 7 6 6 6 6 6 6 6 6 6 6 6 5 5 5 5 5 5 5 5 5 5 5 4 4 4 4 4 4 4 4
6 6 6 6 6 5 6 6 6 6 6 5 5 5 5 5 5 5 5 5 4 5 4 4 4 4 4 4 4 3 3 3 3
5 5 5 5 5 5 5 5 5 5 5 5 5 5 4 4 5 5 5 4 4 4 4 4 4 4 4 4 3 3 2 2 2
5 4 5 4 5 5 5 5 5 5 5 4 4 4 4 5 5 5 4 4 4 4 4 4 4 4 4 3 3 3 3 2 2
5 5 5 5 5 4 4 4 4 4 4 4 5 5 5 5 5 5 4 4 4 4 4 3 3 3 3 3 2 2 2 2 2
5 5 4 4 4 4 4 4 4 4 5 5 5 5 5 5 5 4 4 3 3 3 3 3 2 2 2 1 1 1 0 1 1
4 4 4 3 3 3 3 4 4 4 5 5 5 5 5 5 4 4 4 3 2 2 2 1 1 1 0 -0 -0 -0 -0 -0 -1
4 3 3 3 3 3 3 4 4 4 5 5 5 6 5 5 4 3 3 3 3 3 2 1 1 1 0 0 -0 -1 -1 -1 -1
3 3 2 3 3 3 4 4 4 4 4 4 4 4 4 5 5 4 3 3 3 2 1 0 -0 -1 -1 -1 -2 -2 -2 -2 -2
3 2 2 2 3 3 3 4 4 4 3 3 2 2 2 2 4 4 4 3 3 2 1 0 -1 -1 -2 -2 -3 -3 -3 -3 -3
2 2 2 3 3 3 3 3 3 3 2 2 2 2 1 0 0 2 3 2 1 0 -0 -2 -3 -3 -3 -4 -4 -4 -4 -4 -4
Height
3134 3133 3133 3133 3132 3131 3130 3130 3130 3129 3128 3127 3127 3126 3124 3123 3122 3121 3120 3119 3118 3118 3118 3116 3115 3116 3115 3114 3114 3113 3113 3113 3113
3133 3132 3132 3131 3131 3130 3129 3128 3126 3126 3125 3124 3123 3122 3121 3120 3119 3117 3116 3115 3114 3112 3112 3111 3110 3110 3111 3110 3109 3109 3109 3109 3108
3132 3131 3131 3130 3129 3128 3127 3126 3124 3123 3122 3121 3120 3119 3118 3117 3115 3114 3112 3111 3110 3109 3107 3107 3106 3106 3106 3105 3104 3104 3103 3104 3103
3131 3130 3129 3128 3127 3126 3124 3123 3122 3121 3120 3119 3117 3117 3115 3114 3112 3110 3109 3107 3107 3105 3104 3103 3103 3102 3101 3100 3099 3099 3099 3098 3098
3129 3127 3126 3125 3124 3123 3122 3122 3121 3119 3118 3117 3116 3114 3113 3112 3110 3108 3106 3104 3103 3102 3101 3100 3099 3097 3096 3096 3095 3095 3094 3094 3094
3128 3126 3125 3124 3123 3122 3121 3120 3119 3117 3116 3115 3113 3112 3110 3109 3107 3105 3103 3101 3100 3098 3096 3095 3094 3093 3092 3091 3091 3090 3089 3089 3089
3127 3126 3125 3123 3122 3120 3119 3118 3117 3115 3114 3112 3110 3108 3107 3104 3102 3101 3099 3097 3095 3093 3092 3090 3089 3088 3087 3086 3086 3085 3085 3084 3083
3125 3124 3123 3121 3119 3118 3116 3114 3113 3112 3110 3109 3107 3105 3104 3101 3099 3096 3094 3092 3090 3088 3087 3085 3083 3083 3082 3080 3080 3079 3078 3077 3076
3123 3121 3120 3118 3117 3115 3114 3112 3110 3109 3107 3104 3102 3101 3098 3095 3092 3090 3087 3085 3083 3081 3080 3079 3078 3076 3075 3073 3073 3072 3071 3069 3069
3120 3118 3117 3115 3114 3113 3110 3108 3106 3104 3102 3099 3097 3094 3092 3089 3086 3084 3082 3080 3078 3075 3073 3071 3070 3069 3067 3066 3066 3064 3063 3062 3061
3116 3115 3113 3111 3109 3107 3105 3103 3100 3098 3096 3094 3091 3089 3087 3083 3081 3079 3077 3073 3070 3067 3064 3062 3060 3058 3057 3056 3055 3054 3052 3050 3048
3112 3110 3109 3107 3105 3103 3100 3097 3095 3092 3090 3087 3085 3083 3079 3075 3073 3070 3067 3064 3061 3058 3055 3052 3051 3048 3046 3044 3043 3043 3041 3039 3037
3108 3106 3105 3103 3100 3098 3095 3092 3089 3087 3084 3082 3079 3076 3072 3068 3065 3062 3058 3055 3052 3049 3046 3043 3041 3038 3035 3033 3032 3030 3029 3028 3027
3103 3102 3100 3097 3095 3093 3089 3086 3084 3081 3078 3075 3072 3069 3064 3060 3057 3054 3051 3046 3043 3040 3037 3035 3032 3029 3026 3023 3021 3019 3017 3015 3015
3099 3098 3096 3093 3091 3088 3085 3082 3077 3073 3070 3067 3064 3060 3056 3053 3050 3047 3043 3040 3036 3032 3029 3025 3022 3019 3015 3012 3009 3006 3003 3001 2999
3096 3094 3092 3089 3086 3083 3080 3076 3071 3065 3061 3058 3057 3054 3049 3046 3042 3040 3035 3031 3027 3023 3019 3015 3012 3009 3006 3002 2998 2995 2992 2988 2985
3092 3090 3088 3085 3081 3077 3073 3069 3064 3058 3052 3049 3045 3042 3043 3038 3033 3031 3028 3024 3020 3016 3011 3007 3002 2998 2994 2991 2987 2984 2980 2976 2972
3089 3087 3084 3080 3075 3070 3065 3061 3057 3052 3046 3040 3036 3030 3026 3024 3026 3022 3020 3014 3010 3006 3001 2997 2991 2986 2981 2976 2973 2969 2965 2961 2957
3086 3083 3079 3074 3069 3064 3059 3054 3049 3045 3040 3035 3029 3024 3016 3008 3001 3010 3009 3003 2998 2992 2987 2983 2977 2972 2966 2961 2956 2951 2947 2944 2941
3081 3077 3073 3068 3063 3057 3052 3047 3042 3037 3033 3028 3024 3019 3012 3004 2992 2981 2984 2988 2986 2980 2973 2968 2962 2957 2951 2945 2940 2935 2930 2926 2921
Wind_Speed
8 8 9 10 10 11 11 12 12 12 13 13 14 15 15 15 16 15 16 15 15 14 14 15 16 17 18 17 16 16 16 16 16
9 9 9 10 11 11 11 11 11 11 12 12 13 13 13 12 13 13 14 14 14 15 15 14 15 18 19 18 18 18 18 18 18
8 8 9 8 8 8 8 8 8 9 9 10 11 11 12 13 13 14 14 14 14 15 15 16 16 18 19 19 19 20 20 20 20
9 8 8 8 8 8 8 8 8 9 9 10 10 12 12 13 14 14 15 15 15 15 16 17 17 18 19 19 20 21 21 22 22
9 8 8 7 7 7 8 8 9 10 11 12 13 14 15 16 16 17 18 18 18 18 18 18 19 20 20 21 22 22 22 22 24
10 9 9 8 8 9 10 11 12 13 14 15 16 17 18 18 19 19 20 20 21 21 22 22 23 23 23 24 24 24 24 25 26
12 11 11 11 12 13 14 15 16 17 18 19 20 20 21 21 20 20 20 21 21 21 21 22 22 24 25 24 25 25 25 26 26
11 11 12 13 13 14 15 16 17 18 19 20 21 22 22 22 22 21 20 20 20 21 23 24 24 25 24 26 26 26 26 27 28
13 12 13 15 16 16 16 18 19 20 21 22 22 22 22 23 23 24 24 26 26 26 26 25 25 25 27 28 27 28 28 31 31
16 16 16 16 17 18 19 20 22 23 24 24 24 24 24 25 26 27 28 28 30 31 31 31 30 30 31 31 30 30 32 33 34
16 17 18 19 20 22 23 24 26 26 26 26 27 26 27 28 30 30 31 33 34 35 36 36 37 37 38 37 36 37 35 37 39
18 20 21 22 23 24 26 27 28 28 29 29 29 30 32 34 36 36 35 35 35 35 36 37 37 38 38 39 39 38 39 40 40
19 21 23 23 25 26 26 27 29 31 32 32 33 34 36 37 36 34 34 34 35 34 35 35 36 37 39 40 40 42 43 44 46
20 21 22 23 25 26 28 30 32 33 35 36 36 35 35 34 34 34 34 35 35 35 36 37 37 38 40 41 42 43 44 45 45
19 21 22 23 26 28 30 33 36 38 38 36 34 33 35 35 34 33 33 35 35 36 37 38 38 39 41 42 43 45 45 46 47
18 20 22 24 27 30 32 35 36 38 37 36 34 33 35 34 34 34 35 35 36 37 38 39 41 41 41 43 45 46 48 49 51
18 20 23 26 30 33 35 35 35 36 37 37 38 38 35 36 36 35 35 37 37 39 40 41 43 44 46 46 47 48 49 50 52
19 22 26 29 32 34 34 34 33 34 36 39 40 43 44 43 38 39 38 41 41 42 43 44 45 47 48 50 50 50 51 53 54
21 25 28 31 32 32 32 33 34 35 35 36 39 41 45 49 54 45 43 45 48 49 50 50 51 52 53 52 53 53 54 54 54
24 27 30 31 32 33 33 34 35 36 36 37 38 40 43 47 54 61 57 53 51 52 54 53 53 52 54 54 54 54 55 56 57
Wind_Direction
336 321 311 304 300 297 294 293 292 294 294 299 299 300 302 300 298 296 295 295 294 291 289 292 295 292 291 292 288 287 287 287 288
356 345 331 316 311 305 301 302 304 305 304 304 301 301 300 298 296 294 291 290 288 290 286 284 280 282 282 283 284 283 280 281 281
344 337 329 324 321 316 315 313 312 307 305 299 296 297 295 295 293 292 289 286 283 282 283 280 276 273 273 274 275 275 276 276 276
338 331 325 317 311 309 308 304 300 300 303 299 303 297 296 293 293 293 293 292 285 281 280 279 277 275 273 272 273 273 274 274 273
335 331 327 317 311 310 310 310 312 311 306 305 303 302 298 294 293 294 293 293 292 288 284 282 280 279 278 276 274 273 274 274 274
330 335 329 328 327 324 321 323 321 318 315 314 312 310 307 304 301 295 292 288 287 286 285 284 280 279 279 280 280 281 280 277 276
329 326 322 324 323 324 326 325 322 323 324 321 318 315 310 307 301 294 288 286 281 278 279 281 284 284 284 285 286 285 284 284 282
316 311 315 319 321 324 325 324 323 321 319 316 314 313 311 306 301 298 295 289 287 287 284 283 283 284 285 283 283 282 283 282 281
312 307 312 315 318 316 317 316 315 312 311 312 312 311 313 312 308 307 305 305 304 300 296 293 288 284 278 279 282 283 280 280 278
311 311 306 307 307 312 312 310 309 311 314 314 314 316 316 313 310 308 308 304 301 298 296 292 287 284 282 279 274 270 270 272 273
303 303 301 306 310 311 310 311 313 314 314 314 315 315 313 307 305 303 301 299 297 294 293 290 288 286 282 277 273 269 266 263 261
301 298 300 304 307 307 310 312 312 313 314 315 313 312 308 306 305 303 301 298 295 294 292 289 287 284 282 279 276 271 265 261 261
291 294 298 302 304 307 309 311 311 311 311 310 309 307 304 303 302 303 302 300 297 295 293 291 289 286 284 281 278 274 270 266 262
291 294 298 302 304 308 310 309 308 307 306 306 305 304 303 303 303 302 301 298 298 296 293 291 288 285 283 282 280 279 275 272 269
296 298 300 302 306 307 308 307 305 305 305 306 307 307 304 304 303 301 299 298 294 292 291 291 290 289 287 285 284 283 282 280 278
296 298 301 304 304 304 303 303 304 306 307 307 305 303 301 301 300 299 298 298 297 296 294 292 290 287 284 283 281 281 280 279 278
295 299 302 303 304 306 307 308 308 307 307 307 306 303 300 300 299 298 296 292 291 290 290 288 287 287 286 284 282 281 279 278 277
298 301 303 306 307 308 309 309 309 308 308 309 309 309 306 303 299 300 299 296 295 294 294 294 293 291 289 288 286 284 281 279 277
300 303 306 306 308 310 311 311 311 310 310 310 310 310 310 311 308 304 303 301 301 300 298 297 295 293 292 291 290 288 285 283 280
303 307 309 312 313 314 314 313 313 312 311 310 308 308 308 308 308 308 309 305 302 299 298 297 296 294 292 290 288 286 285 284 282